Location: *
(2.5500°S, 65.9667°W)
Time: 12:11:06
(UTC+00:00)

Cosmos 2233 Rocket - Pass Details

Date: 26 October 2021
Orbit: 953 x 990 km, 82.9° (Epoch: 28 November)

Event Time Altitude Azimuth Distance (km) Brightness Sun altitude
Rises 23:30:23 0° 169° (S) 3,684 7.1 -19.5°
Reaches altitude 10° 23:33:05 10° 161° (SSE) 2,728 6.3 -20.2°
Maximum altitude 23:38:52 40° 94° (E) 1,398 4.3 -21.5°
Enters shadow 23:39:07 40° 88° (E) 1,401 4.3 -21.6°
